When you browse on this site, cookies collect data to enhance your experience and personalize the content and advertising you see.
Visit our Privacy Policy to learn more. By continuing to use the site, you agree to this use of cookies and data.
  • In Hungary
  • List of Countries
  • For 7 days
  • Water Temperature
  • Weather Map
  • News
  • Weather Widgets
  • user-avatar
    Login

    Hourly Weather Pupkowizna

    Today, 19 September, Thursday

    Time Temperature Precipitation Wind Pressure Humidity
    00:00 +5°C° 0 mm 4 mps 751 mmHg 89%
    01:00 +5°C° 0 mm 4 mps 751 mmHg 90%
    02:00 +5°C° 0 mm 3 mps 751 mmHg 91%
    03:00 +4°C° 0 mm 3 mps 751 mmHg 91%
    04:00 +4°C° 0 mm 3 mps 751 mmHg 92%
    05:00 +5°C° 0 mm 3 mps 752 mmHg 89%
    06:00 +7°C° 0 mm 3 mps 752 mmHg 85%
    07:00 +7°C° 0 mm 4 mps 752 mmHg 82%
    08:00 +10°C° 0.1 mm 4 mps 752 mmHg 74%
    09:00 +12°C° 0.1 mm 4 mps 753 mmHg 66%
    10:00 +13°C° 0.1 mm 4 mps 753 mmHg 59%
    11:00 +13°C° 0.4 mm 5 mps 753 mmHg 59%
    12:00 +14°C° 0.4 mm 5 mps 753 mmHg 59%
    13:00 +14°C° 0.4 mm 5 mps 753 mmHg 58%
    14:00 +13°C° 0.3 mm 5 mps 753 mmHg 60%
    15:00 +13°C° 0.3 mm 5 mps 753 mmHg 62%
    16:00 +12°C° 0.3 mm 4 mps 753 mmHg 65%
    17:00 +11°C° 0.1 mm 4 mps 753 mmHg 72%
    18:00 +8°C° 0.1 mm 4 mps 754 mmHg 79%
    19:00 +7°C° 0.1 mm 4 mps 754 mmHg 86%
    20:00 +6°C° 0 mm 4 mps 754 mmHg 88%
    21:00 +6°C° 0 mm 4 mps 754 mmHg 89%
    22:00 +6°C° 0 mm 4 mps 755 mmHg 91%
    23:00 +5°C° 0 mm 4 mps 755 mmHg 91%

    Tomorrow, 20 September, Friday

    Time Temperature Precipitation Wind Pressure Humidity
    00:00 +5°C° 0 mm 3 mps 755 mmHg 92%
    01:00 +4°C° 0 mm 3 mps 755 mmHg 93%
    02:00 +4°C° 0 mm 3 mps 755 mmHg 93%
    03:00 +4°C° 0 mm 3 mps 755 mmHg 93%
    04:00 +3°C° 0 mm 3 mps 755 mmHg 94%
    05:00 +4°C° 0 mm 3 mps 755 mmHg 90%
    06:00 +5°C° 0 mm 3 mps 756 mmHg 85%
    07:00 +7°C° 0 mm 3 mps 756 mmHg 81%
    08:00 +8°C° 0.1 mm 3 mps 756 mmHg 74%
    09:00 +10°C° 0.1 mm 3 mps 756 mmHg 67%
    10:00 +12°C° 0.1 mm 4 mps 756 mmHg 60%
    11:00 +12°C° 0.1 mm 4 mps 756 mmHg 57%
    12:00 +13°C° 0.1 mm 4 mps 756 mmHg 54%
    13:00 +13°C° 0.1 mm 3 mps 756 mmHg 51%
    14:00 +13°C° 0.1 mm 3 mps 756 mmHg 55%
    15:00 +13°C° 0.1 mm 3 mps 756 mmHg 58%
    16:00 +12°C° 0.1 mm 3 mps 756 mmHg 62%
    17:00 +12°C° 0 mm 2 mps 756 mmHg 68%
    18:00 +10°C° 0 mm 1 mps 756 mmHg 74%
    19:00 +8°C° 0 mm 1 mps 756 mmHg 79%
    20:00 +8°C° 0 mm 1 mps 755 mmHg 79%
    21:00 +7°C° 0 mm 2 mps 755 mmHg 79%
    22:00 +6°C° 0 mm 2 mps 755 mmHg 78%
    23:00 +5°C° 0 mm 3 mps 755 mmHg 81%

    Day after tomorrow, 21 September, Saturday

    Time Temperature Precipitation Wind Pressure Humidity
    00:00 +5°C° 0 mm 3 mps 755 mmHg 83%
    01:00 +5°C° 0 mm 3 mps 755 mmHg 85%
    02:00 +7°C° 0 mm 3 mps 754 mmHg 85%
    03:00 +7°C° 0 mm 4 mps 754 mmHg 85%
    04:00 +8°C° 0 mm 4 mps 754 mmHg 85%
    05:00 +8°C° 0 mm 5 mps 754 mmHg 86%
    06:00 +9°C° 0 mm 5 mps 754 mmHg 87%
    07:00 +9°C° 0 mm 5 mps 754 mmHg 88%
    08:00 +10°C° 0 mm 5 mps 754 mmHg 84%
    09:00 +13°C° 0 mm 5 mps 754 mmHg 80%
    10:00 +14°C° 0 mm 5 mps 754 mmHg 76%
    11:00 +14°C° 0 mm 5 mps 754 mmHg 75%
    12:00 +14°C° 0 mm 5 mps 753 mmHg 73%
    13:00 +15°C° 0 mm 5 mps 753 mmHg 72%
    14:00 +14°C° 0 mm 5 mps 753 mmHg 73%
    15:00 +14°C° 0 mm 4 mps 753 mmHg 73%
    16:00 +14°C° 0 mm 4 mps 753 mmHg 74%
    17:00 +13°C° 0 mm 3 mps 753 mmHg 77%
    18:00 +12°C° 0 mm 3 mps 753 mmHg 80%
    19:00 +13°C° 0 mm 2 mps 753 mmHg 82%
    20:00 +12°C° 0 mm 2 mps 753 mmHg 86%
    21:00 +10°C° 0 mm 2 mps 753 mmHg 89%
    22:00 +10°C° 0 mm 2 mps 753 mmHg 92%
    23:00 +10°C° 0 mm 2 mps 753 mmHg 93%

    22 September, Sunday

    Time Temperature Precipitation Wind Pressure Humidity
    00:00 +9°C° 0 mm 2 mps 753 mmHg 94%
    01:00 +9°C° 0 mm 2 mps 753 mmHg 94%
    02:00 +9°C° 0 mm 2 mps 753 mmHg 94%
    03:00 +9°C° 0 mm 2 mps 752 mmHg 95%
    04:00 +9°C° 0 mm 2 mps 752 mmHg 95%
    05:00 +9°C° 0 mm 2 mps 752 mmHg 92%
    06:00 +10°C° 0 mm 2 mps 752 mmHg 90%
    07:00 +12°C° 0 mm 2 mps 752 mmHg 87%
    08:00 +14°C° 0 mm 2 mps 752 mmHg 79%
    09:00 +16°C° 0 mm 2 mps 752 mmHg 70%
    10:00 +18°C° 0 mm 2 mps 753 mmHg 61%
    11:00 +19°C° 0 mm 2 mps 752 mmHg 58%
    12:00 +20°C° 0 mm 2 mps 752 mmHg 54%
    13:00 +21°C° 0 mm 2 mps 751 mmHg 50%
    14:00 +22°C° 0 mm 1 mps 751 mmHg 53%
    15:00 +21°C° 0 mm 1 mps 751 mmHg 56%
    16:00 +21°C° 0 mm 1 mps 750 mmHg 59%
    17:00 +19°C° 0 mm 1 mps 750 mmHg 64%
    18:00 +16°C° 0 mm 1 mps 750 mmHg 70%
    19:00 +14°C° 0 mm 1 mps 750 mmHg 75%
    20:00 +14°C° 0 mm 2 mps 750 mmHg 78%
    21:00 +13°C° 0 mm 2 mps 750 mmHg 81%
    22:00 +11°C° 0 mm 3 mps 750 mmHg 84%
    23:00 +11°C° 0 mm 3 mps 750 mmHg 86%

    23 September, Monday

    Time Temperature Precipitation Wind Pressure Humidity
    00:00 +11°C° 0 mm 3 mps 749 mmHg 89%
    01:00 +10°C° 0 mm 3 mps 749 mmHg 91%
    02:00 +10°C° 0 mm 3 mps 748 mmHg 91%
    03:00 +10°C° 0 mm 3 mps 748 mmHg 90%
    04:00 +10°C° 0 mm 4 mps 747 mmHg 90%
    05:00 +10°C° 0 mm 4 mps 747 mmHg 86%
    06:00 +11°C° 0 mm 4 mps 746 mmHg 82%
    07:00 +10°C° 0 mm 5 mps 746 mmHg 79%
    08:00 +12°C° 0 mm 4 mps 745 mmHg 75%
    09:00 +13°C° 0 mm 4 mps 745 mmHg 72%
    10:00 +13°C° 0 mm 4 mps 745 mmHg 69%
    11:00 +14°C° 0 mm 4 mps 744 mmHg 68%
    12:00 +14°C° 0 mm 4 mps 744 mmHg 67%
    13:00 +14°C° 0 mm 3 mps 743 mmHg 66%
    14:00 +14°C° 0 mm 3 mps 743 mmHg 69%
    15:00 +14°C° 0 mm 3 mps 743 mmHg 72%
    16:00 +15°C° 0 mm 2 mps 742 mmHg 75%
    17:00 +14°C° 0 mm 2 mps 742 mmHg 79%
    18:00 +14°C° 0 mm 2 mps 742 mmHg 82%
    19:00 +13°C° 0 mm 1 mps 742 mmHg 86%
    20:00 +13°C° 0 mm 1 mps 742 mmHg 87%
    21:00 +13°C° 0 mm 1 mps 742 mmHg 88%
    22:00 +12°C° 0 mm 0 mps 742 mmHg 88%
    23:00 +12°C° 0 mm 0 mps 742 mmHg 88%

    24 September, Tuesday

    Time Temperature Precipitation Wind Pressure Humidity
    00:00 +12°C° 0 mm 0 mps 742 mmHg 87%
    01:00 +12°C° 0 mm 0 mps 742 mmHg 86%
    02:00 +12°C° 0 mm 0 mps 742 mmHg 85%
    03:00 +12°C° 0 mm 0 mps 742 mmHg 84%
    04:00 +13°C° 0 mm 1 mps 742 mmHg 84%
    05:00 +13°C° 0 mm 1 mps 742 mmHg 82%
    06:00 +13°C° 0 mm 1 mps 742 mmHg 81%
    07:00 +13°C° 0 mm 1 mps 742 mmHg 80%
    08:00 +15°C° 0 mm 1 mps 743 mmHg 74%
    09:00 +16°C° 0 mm 1 mps 743 mmHg 68%
    10:00 +17°C° 0 mm 2 mps 743 mmHg 63%
    11:00 +18°C° 0 mm 2 mps 743 mmHg 60%
    12:00 +19°C° 0 mm 2 mps 743 mmHg 57%
    13:00 +20°C° 0 mm 3 mps 743 mmHg 54%
    14:00 +19°C° 0 mm 2 mps 743 mmHg 57%
    15:00 +19°C° 0 mm 2 mps 743 mmHg 59%
    16:00 +18°C° 0 mm 2 mps 743 mmHg 62%
    17:00 +17°C° 0 mm 2 mps 744 mmHg 67%
    18:00 +15°C° 0 mm 2 mps 744 mmHg 72%
    19:00 +14°C° 0 mm 1 mps 744 mmHg 77%
    20:00 +13°C° 0 mm 1 mps 744 mmHg 80%
    21:00 +13°C° 0 mm 2 mps 744 mmHg 83%
    22:00 +12°C° 0 mm 2 mps 744 mmHg 86%
    23:00 +12°C° 0 mm 2 mps 744 mmHg 88%
    Show more